星链-30490 (STARLINK-30490 )
导读 | 豆包AI
STARLINK-30490是美国SpaceX公司星链(Starlink)星座中的一员,于2023年9月24日发射入轨,属于低轨通信卫星。星链项目旨在构建全球卫星互联网,为全球提供低延迟、高速宽带网络服务。该卫星采用氪离子推进系统,具备自主碰撞规避能力,使用Ku、Ka等频段通信,支持星间激光链路,是星链大规模星座部署中的组成部分,助力实现全球无缝网络覆盖。
Basic Information
目录编号:
57922
目录名称:
STARLINK-30490
国际标识:
2023-147K
轨道中心:
EARTH
卫星名称:
星链-30490
卫星全名:
星链-30490 (STARLINK-30490 )
卫星状态:
已陨落 最后检测时间 2023-10-01
发射日期:
2023-09-24 UTC
国别 :
美国
(US)
星等 :
--
Orbit Information
| 数据来源 | 国际轨道数据 |
| 星历时间: | 2023-10-02T09:14:03+0800 轨道信息已过期966天 |
| 半长轴: | 6540.056km |
| 偏心率: | 0.000097 |
| 轨道倾角: | 42.998° |
| 近地点辐角 | 273.779° |
| 升交点赤经 | 146.492° |
| 平近点角 | 147.016° |
| 近地点: | 161.286km |
| 远地点: | 162.556km |
| 周期: | 87.727分钟 |
| 每日圈数: | 16.414611 |
Detailed Information
固有亮度:
5
最大亮度:
0.3
卫星平台:
Starlink v2.0 mini
覆盖范围:
全球
运营商:
太空探索技术公司
运营商所在国:
美国
制造商(研发单位):
太空探索技术公司
制造商所在国:
美国
使用方式:
暂无
Satellite Introduction
星链(Starlink)计划是由太空探索技术公司(SpaceX)提出的一个巨型低轨卫星互联网星座项目,计划在2019年至2024年间在太空搭建由约1.2万颗卫星组成的“星链”网络,其中1584颗将部署在地球上空550千米处的近地轨道,并从2020年开始工作。该卫星已陨落。

